SL-14 DEB, 47091

Orbit data source: Space-Track

SL-14 DEB, 47091 is space debris in LEO originally from a launch on Thu, 15 Aug 1991 UTC launched from the Plesetsk Missile And Space Complex (PKMTR). Debris objects in space refer to the collection of defunct objects orbiting the Earth. Examples of debris include non-operational satellites, rocket bodies, and fragments generated from explosions, collisions, or faulty payload assembly.

Loading next visibility...
Identifier
47091, 1991-056DR
Orbit
LEO
Country
Flag of CISCIS
Related business
Manufacturer
Unknown
Mission
Spacecraft
Bus & Motor
Unknown
Mass
Unknown
Launch date (UTC)
1991-08-15 (35 years ago)
Launch vehicle
Unknown
Launch site
Plesetsk Missile And Space Complex (PKMTR)
Object type
Payload
Rocket body
Debris
Shape & HBR
Unknown shape, 0.1 m
Radar Cross Section
Small (<0.1 m²)

Expand to show TLE details & history
Last TLE update: 4 days ago

TLE from 4 days ago
0 SL-14 DEB
1 47091U 91056DR  26169.65984065  .00000454  00000-0  10902-2 0  9996
2 47091  82.5986 142.3882 0010984   2.3314 357.7860 13.20494747270831
Epoch: 2026-06-18T15:50Z
TLE epoch observation values (Epoch: 2026-06-18T15:50:10.232Z)
Latitude
0.00003°
Longitude
-2.05442°
Altitude
1,177.344 km
Speed
7.269 km/s
True Right ascension
09h 29m 33s
True Declination
0° 00' 00"
Sunlit
Object was in daylight at epoch
Visualization orbit readout
Latitude
Unknown
Longitude
Unknown
Altitude
Unknown
Speed
Unknown
Apparent Right ascension
Unknown
Apparent Declination
Unknown
Sunlit
N/A
Visualization observer readout
Local Sidereal Time
21:38:44
Azimuth
Unknown
Elevation
Unknown
Doppler factor
Unknown
Orbital elements
Apogee altitude
1,188.371 km
Perigee altitude
1,171.767 km
Semi-major axis
7,558.206 km
Eccentricity
0.0011
Inclination
82.5986°
RAAN
142.3882°
Arg. of periapsis
2.3314°
True anomaly
357.78113°
Mean anomaly
357.786°
Eccentric anomaly
357.78357°
Mean motion
3.30305 °/min
Orbital period
108.99 mins
BSTAR
0.0010902
Loading maneuver chart data...
Computing Atmospheric mass density...
Loading historical data...
Loading historical data...
Loading historical data...
Loading historical data...
Loading historical data...
Loading historical data...
Loading historical data...

Documentation

Showing up to 5 results
|